Astoria, OR

8:51 PM PST on January 18, 2017 (GMT -0800)
Astoria | | Change Station

Elev 236 ft 46.18 °N, 123.83 °W | Updated 12 seconds ago

Rain
Rain
46.9 °F
Feels Like 47 °F
N
1.0
Wind Variable Wind from SSE

Today
High -- | Low -- °F
--% Chance of Precip.
Yesterday
High -- | Low -- °F
Precip. -- in
Pressure 29.30 in
Visibility 4.0 miles
Clouds Few 800 ft
Scattered Clouds 1700 ft
Overcast 3400 ft
Windchill 47 °F
Dew Point 43 °F
Humidity 88%
Rainfall 1.40 in
Snow Depth Not available.
7:51 AM 5:00 PM
Waning Gibbous, 57% visible
METAR KAST 190355Z AUTO 22007G16KT 4SM RA FEW008 SCT017 OVC034 09/07 A2930 RMK AO2 SLP922 P0017 T00940067
Pressure 29.30 in
Visibility 4.0 miles
Clouds Few 800 ft
Scattered Clouds 1700 ft
Overcast 3400 ft
Windchill 47 °F
Dew Point 43 °F
Humidity 88%
Rainfall 1.40 in
Snow Depth Not available.
7:51 AM 5:00 PM
Waning Gibbous, 57% visible
METAR KAST 190355Z AUTO 22007G16KT 4SM RA FEW008 SCT017 OVC034 09/07 A2930 RMK AO2 SLP922 P0017 T00940067

Get Your Daily Forecast Email!

Thanks for signing up!

Be on the lookout for a verification email in your inbox.

You'll start receiving the daily forecast at 8 AM.

×

10-Day Weather Forecast

Almanac

Astronomy

Jan. 18, 2017 Rise Set
Actual Time
Civil Twilight
Nautical Twilight
Astronomical Twilight
Moon
Length of Visible Light
Length of Day
Tomorrow will be .
, % of the Moon is Illuminated

Today's Extremes

State Highs State Lows

Community

WunderPhotos

Upload Photos

1,962,540 photos uploaded!

WunderBlog® & News

Nearby

Air Quality

  Air Quality AQ Index Pollutant
Not available.

Snow Depth

Station Depth Elevation

Earthquake Activity

City Distance Mag. Time & Date
Minimum magnitude displayed is 2.5.

Coastal Water Temperatures

Place Temperature

Stations

Nearby Weather Stations

Station Location Temp. Windchill Dew Point Humidity Wind Precip. Elev Updated Type
                   

Watches & Warnings

Small Craft for Rough Bar Advisory
Issued: 2:57 PM PST Jan. 18, 2017 – National Weather Service

... Small Craft Advisory for rough bar now in effect until 4 PM
PST Thursday...

* in the Main Channel...

* general seas... 14 to 16 ft this afternoon... decreasing to 12 to
14 ft tonight and Thursday.

* First Ebb... around 915 PM this evening. Seas near 17 ft with
breakers.

* Second Ebb... around 10 am Thursday morning. Seas near 17 ft with
breakers.

Precautionary/preparedness actions...

A Small Craft Advisory for rough bar means that wave conditions
are expected to be hazardous to small craft in or near Harbor
entrances.




Http://www.Weather.Gov/Portland